{"data":{"norad_id":69685,"intl_designator":"2026-145J","name":"STARLINK-37957","alt_names":[],"object_type":"PAYLOAD","status":"ACTIVE","operator":null,"country":"US","launch_date":"2026-06-25","launch_site_code":"AFWTR","launch_vehicle":null,"mission":null,"orbit_class":"UNKNOWN","rcs_meters":null,"size_class":null,"mass_kg":null,"dimensions":null,"purposes":["comms"],"wikipedia_slug":null,"has_3d_model":false,"image_url":null,"decayed_at":null,"tle_current":{"epoch":"2026-09-19T20:33:45.068832Z","epoch_age_seconds":77244,"freshness":"FRESH","line1":"1 69685U 26145J   26262.85677163  .00019767  00000+0  61268-3 0  9998","line2":"2 69685  97.2853 109.5141 0002552  87.4627 272.6908 15.33460768 13448","mean_motion":15.33460768,"eccentricity":0.0002552,"inclination_deg":97.2853,"raan_deg":109.5141,"arg_perigee_deg":87.4627,"mean_anomaly_deg":272.6908,"bstar":0.00061268,"rev_number":1344,"period_min":93.905239054671,"perigee_km":463.74976519781,"apogee_km":467.24275561392,"semimajor_km":6843.6332604059,"source":"CELESTRAK","updated_at":"2026-09-20T09:00:44.253495Z"}}}